{"data":{"norad_id":52202,"epoch":"2026-05-25T05:06:36.721728Z","epoch_age_seconds":46747,"freshness":"FRESH","line1":"1 52202U 22036A   26145.21292502 -.00000051  00000+0  17296-4 0  9990","line2":"2 52202  67.1485 284.5354 0005779 258.4805 101.5631 13.96678254210747","mean_motion":13.96678254,"eccentricity":0.0005779,"inclination_deg":67.1485,"raan_deg":284.5354,"arg_perigee_deg":258.4805,"mean_anomaly_deg":101.5631,"bstar":1.7296e-5,"rev_number":21074,"period_min":103.10176992274,"perigee_km":901.11144649047,"apogee_km":909.5296667344,"semimajor_km":7283.4575566124,"source":"CELESTRAK","updated_at":"2026-05-25T13:37:57.651374Z"}}